Location: Basse Occidentale du Courleau
(48.3833°N, 4.8333°W)
Time: 19:52:50
(UTC+00:00)

Cosmos 1933 - Pass Details

Date: 05 July 2020
Orbit: 547 x 563 km, 82.5° (Epoch: 05 August)

Event Time Altitude Azimuth Distance (km) Brightness Sun altitude
Rises 23:30:42 0° 354° (N) 2,731 8.6 -18.0°
Reaches altitude 10° 23:32:56 10° 360° (N) 1,833 7.2 -18.0°
Maximum altitude 23:36:52 52° 77° (ENE) 692 3.8 -18.2°
Enters shadow 23:38:07 36° 130° (SE) 876 3.9 -18.2°
